User: anonymous   Login
Location: Asheville, NC
(35.6000°N, 82.5500°W)
Time: 06:48:41
(UTC-05:00)
Language:

DX 1 - Orbit

View from above orbital plane
View from above orbital plane
View from above satellite
View from above satellite

Ground track
Ground track

The orbit data is extracted from the following two-line orbital elements,

1 40071U 14037C   18018.17402678  .00000088  00000-0  18694-4 0  9998
2 40071  98.3553 143.0516 0009890  83.7220 276.5119 14.81113208190791
Epoch (UTC): 18 January 2018 04:10:35
Eccentricity: 0.0009890
inclination: 98.3553°
perigee height: 619 km
apogee height: 633 km
right ascension of ascending node: 143.0516°
argument of perigee: 83.7220°
revolutions per day: 14.81113208
mean anomaly at epoch: 276.5119°
orbit number at epoch: 19079

The dashed part of the orbit path shows where the satellite is in the earth's shadow,  

DLR